Home   Weather   Montreal   Past weeks

Flag for Canada Past Weather in Montreal, Quebec, Canada — Yesterday and Last 2 Weeks

Now
37 °F

Partly sunny.


Feels Like: 30 °F
Forecast: 31 / 47 °F
Wind: 12 mph from Northeast

Location: Montreal - Pierre Elliot Trudeau International Aiport

Current Time: Apr 24, 2017 at 11:50:59 am

Latest Report: Apr 24, 2017 at 11:00 am


Visibility: 30 mi

Pressure: 30.33 "Hg

Humidity: 48%

Dew Point: 19 °F

Location of MontrealLocation

Past Weather in Montreal — Graph

°F

Montreal Temperature Yesterday

Maximum temperature yesterday: 64 °F (at 5:00 pm)
Minimum temperature yesterday: 36 °F (at 3:40 am)
Average temperature yesterday: 49 °F

High & Low Weather Summary for the Past Weeks

 TemperatureHumidityPressure
High77 °F (Apr 10, 3:00 pm)100% (Apr 11, 11:00 pm)30.50 "Hg (Apr 11, 11:00 pm)
Low32 °F (Apr 14, 5:00 am)23% (Apr 14, 5:00 pm)29.59 "Hg (Apr 16, 5:33 pm)
Average48 °F70%30.06 "Hg
* Reported Apr 9 10:00 am — Apr 24 10:00 am, Montreal, Weather by CustomWeather, © 2017

Note: Actual official high and low records may vary slightly from our data, if they occured in-between our weather recording intervals... More about our weather records

Advertising

Montreal Weather History for the Previous 24 Hours

Scroll right to see more
 ConditionsComfort  
Time TempWeatherWind HumidityBarometerVisibility
10:00 am
Mon, Apr 24
36 °FPartly sunny.14 mph52%30.33 "Hg30 mi
9:00 am34 °FOvercast.13 mph56%30.32 "Hg15 mi
8:00 am34 °FPartly sunny.16 mph60%30.30 "Hg15 mi
7:00 am34 °FPartly sunny.18 mph60%30.27 "Hg15 mi
6:00 am34 °FMostly cloudy.15 mph65%30.24 "Hg15 mi
5:00 am36 °FPartly cloudy.14 mph65%30.20 "Hg15 mi
4:00 am36 °FPassing clouds.14 mph65%30.18 "Hg15 mi
3:00 am39 °FPassing clouds.17 mph65%30.15 "Hg15 mi
2:00 am41 °FPassing clouds.10 mph66%30.15 "Hg15 mi
1:00 am43 °FPassing clouds.14 mph57%30.13 "Hg15 mi
12:34 am45 °FPassing clouds.10 mph66%30.12 "Hg15 mi
11:00 pm
Sun, Apr 23
50 °FOvercast.10 mph58%30.08 "Hg15 mi
10:00 pm54 °FOvercast.13 mph54%30.05 "Hg15 mi
9:00 pm55 °FOvercast.8 mph47%30.01 "Hg15 mi
8:00 pm61 °FScattered showers. Partly cloudy.21 mph31%29.94 "Hg30 mi
7:00 pm61 °FPassing clouds.17 mph34%29.90 "Hg30 mi
6:00 pm63 °FPassing clouds.21 mph32%29.90 "Hg30 mi
5:00 pm64 °FScattered clouds.21 mph37%29.90 "Hg30 mi
4:00 pm63 °FPartly sunny.17 mph37%29.92 "Hg30 mi
3:00 pm61 °FPartly sunny.20 mph42%29.96 "Hg30 mi
2:00 pm59 °FPartly sunny.18 mph45%30.00 "Hg30 mi
1:00 pm57 °FPartly sunny.15 mph44%30.03 "Hg30 mi
12:00 pm54 °FPartly sunny.16 mph54%30.05 "Hg30 mi
11:00 am50 °FPartly sunny.14 mph67%30.07 "Hg30 mi
Weather by CustomWeather, © 2017

See weather overviewHow to use our weather pages